Weather observations for the past three days for
Oceanside, Oceanside Municipal Airport
Imperial (Metric)
Date Time (pdt) Wind (mph) Vis. (mi.) Weather Sky Cond. Temperature (ºF) Relative Humidity Wind Chill (°F) Heat Index (°F) Pressure Precipitation (in)
Air Dwpt 6 hour altimeter (in) sea level (mb) 1 hr 3 hr 6 hr
Max. Min.
22 18:52 SW 7 6.00 Mostly Cloudy with Haze BKN012 73 64.9 76% 29.82 1009.7
22 17:52 SW 9 6.00 A Few Clouds with Haze FEW013 73.9 64.9 74% 29.81 1009.5
22 16:52 W 7 6.00 Fair with Haze CLR 77 66 80.1 77 69% 79 29.81 1009.4
22 15:52 SW 10 G 20 6.00 Fair with Haze CLR 78.1 66 67% 80 29.82 1009.6
22 14:52 SW 8 6.00 Partly Cloudy with Haze SCT012 79 66 65% 81 29.83 1009.9
22 13:52 SW 12 6.00 Fair with Haze CLR 78.1 66 67% 80 29.84 1010.4
22 12:52 W 9 G 16 6.00 Fair with Haze CLR 79 64.9 62% 81 29.85 1010.9
22 11:52 W 12 G 21 6.00 Fair with Haze CLR 79 66 65% 81 29.86 1011.1
22 10:52 W 7 6.00 A Few Clouds with Haze FEW013 78.1 66 79 62.1 67% 80 29.87 1011.4
22 09:52 SW 9 5.00 Fair with Haze CLR 77 66 69% 79 29.86 1011.2
22 08:52 S 3 6.00 Fair with Haze CLR 77 64.9 66% 79 29.86 1010.9
22 07:52 Calm 5.00 Fair with Haze CLR 71.1 64 79% 29.86 1010.9
22 06:52 Calm 5.00 Fog/Mist CLR 66 62.1 87% 29.85 1010.8
22 05:52 Calm 6.00 Fog/Mist CLR 63 60.1 90% 29.85 1010.7
22 04:52 Calm 6.00 Fog/Mist CLR 63 60.1 66.9 62.1 90% 29.84 1010.5
22 03:52 Calm 6.00 Fog/Mist CLR 63 60.1 90% 29.84 1010.3
22 01:52 Calm 6.00 Fog/Mist CLR 66 62.1 87% 29.86 1011.1
22 00:52 Calm 6.00 Fog/Mist CLR 66 62.1 87% 29.86 1011.2
21 23:52 Calm 6.00 Fog/Mist CLR 64 61 90% 29.88 1011.8
21 22:52 Calm 7.00 Fair CLR 66 62.1 77 66 87% 29.88 1011.7
21 21:52 SW 3 7.00 Fair CLR 68 63 84% 29.89 1012.0
21 20:52 S 3 7.00 Fair CLR 69.1 63 81% 29.88 1011.7
21 19:52 SW 5 6.00 Partly Cloudy with Haze SCT012 70 63 79% 29.87 1011.4
21 18:52 SW 7 6.00 Fair with Haze CLR 72 63 73% 29.86 1011.1
21 17:52 W 7 5.00 Fair with Haze CLR 73.9 64 71% 29.86 1010.9
21 16:52 W 8 6.00 A Few Clouds with Haze FEW013 75 64 78.1 75 69% 77 29.87 1011.3
21 15:52 W 9 G 16 6.00 Fair with Haze CLR 77 64 64% 79 29.88 1011.8
21 14:52 SW 12 G 18 6.00 Fair with Haze CLR 77 64 64% 79 29.89 1012.1
21 13:52 SW 10 6.00 Fair with Haze CLR 75.9 64 67% 78 29.91 1012.7
21 12:52 SW 9 6.00 A Few Clouds with Haze FEW012 77 64.9 66% 79 29.91 1012.7
21 11:52 SW 10 6.00 Partly Cloudy with Haze SCT013 77 64.9 66% 79 29.91 1012.9
21 10:52 SW 9 6.00 Fair with Haze CLR 78.1 66 79 68 67% 80 29.91 1012.8
21 09:52 Vrbl 5 6.00 Fair with Haze CLR 77 66 69% 79 29.91 1012.7
21 08:52 S 5 6.00 Overcast with Haze OVC011 71.1 64.9 81% 29.91 1012.7
21 07:52 S 3 5.00 Overcast with Haze OVC009 70 64 82% 29.89 1012.0
21 06:52 Calm 4.00 Fog/Mist OVC008 69.1 64.9 87% 29.88 1011.8
21 05:52 N 3 6.00 Fog/Mist OVC008 68 64 87% 29.86 1011.1
21 04:52 Calm 6.00 Fog/Mist OVC008 68 64.9 68 66 90% 29.86 1011.0
21 03:52 Calm 6.00 Fog/Mist OVC008 68 64.9 90% 29.86 1011.0
21 02:52 Calm 5.00 Fog/Mist OVC009 66.9 64 91% 29.87 1011.3
21 01:52 Calm 5.00 Fog/Mist OVC009 66 63 90% 29.88 1011.8
21 00:52 Calm 6.00 Fog/Mist CLR 66.9 63 87% 29.89 1012.0
20 23:52 Calm 7.00 Mostly Cloudy BKN008 68 64 87% 29.9 1012.3
20 22:52 Calm 6.00 Fog/Mist FEW007 66.9 64 73.9 66.9 91% 29.9 1012.5
20 21:52 W 3 6.00 Fog/Mist CLR 66.9 64 91% 29.9 1012.3
20 20:52 W 5 7.00 Fair CLR 68 64 87% 29.88 1011.9
20 19:52 W 5 6.00 Fair with Haze CLR 69.1 64 84% 29.87 1011.6
20 18:52 W 6 6.00 Mostly Cloudy with Haze BKN009 70 64 82% 29.87 1011.3
20 17:52 W 7 6.00 A Few Clouds with Haze FEW010 73.9 64.9 74% 29.87 1011.3
20 16:52 SW 9 6.00 Fair with Haze CLR 73.9 64.9 79 73 74% 29.88 1011.6
20 15:52 SW 12 6.00 Fair with Haze CLR 77 64.9 66% 79 29.88 1011.8
20 14:52 W 13 6.00 Fair with Haze CLR 77 64.9 66% 79 29.9 1012.5
20 13:52 W 9 6.00 Fair with Haze CLR 75.9 64.9 69% 78 29.91 1012.8
20 12:52 W 9 5.00 Fair with Haze CLR 77 64.9 66% 79 29.93 1013.3
20 11:52 W 9 5.00 Fair with Haze CLR 73 64 74% 29.94 1013.9
20 10:52 W 7 5.00 Partly Cloudy with Haze SCT008 73.9 64 73.9 66 71% 29.94 1013.8
20 09:52 SW 6 5.00 Overcast with Haze OVC007 71.1 64.9 81% 29.95 1014.0
20 08:52 SW 6 4.00 Fog/Mist OVC004 68 64.9 90% 29.94 1013.9
20 07:52 W 3 1.75 Fog/Mist OVC003 66.9 64.9 93% 29.94 1013.8
20 06:52 Calm 1.25 Fog/Mist OVC003 66.9 64.9 93% 29.93 1013.6
20 05:52 Calm 1.50 Fog/Mist OVC002 66.9 64 91% 29.91 1012.8
20 04:52 Calm 2.50 Fog/Mist OVC002 66 64 68 66 93% 29.91 1012.6
20 03:52 Calm 1.75 Fog/Mist OVC002 66.9 64 91% 29.9 1012.5
20 02:52 Calm 3.00 Fog/Mist OVC003 66.9 64 91% 29.9 1012.6
20 01:52 Calm 4.00 Fog/Mist OVC004 68 64.9 90% 29.91 1012.8
20 00:52 Vrbl 3 4.00 Fog/Mist OVC004 68 64.9 90% 29.92 1013.1
19 23:52 Calm 5.00 Fog/Mist BKN005 OVC009 66 63 90% 29.93 1013.3
19 22:52 W 3 6.00 Fog/Mist CLR 66 63 77 64.9 90% 29.93 1013.4
19 21:52 Calm 7.00 Fair CLR 66 62.1 87% 29.93 1013.5
19 20:52 Calm 7.00 Fair CLR 68 63 84% 29.93 1013.3
19 19:52 W 5 6.00 Fair with Haze CLR 69.1 64 84% 29.91 1012.8
Date Time (pdt) Wind (mph) Vis. (mi.) Weather Sky Cond. Air Dwpt Max. Min. Relative Humidity Wind Chill (°F) Heat Index (°F) altimeter (in) sea level (mb) 1 hr 3 hr 6 hr
6 hour
Temperature (ºF) Pressure Precipitation (in)